This is the latest recevied weather packets stored in our database for station/object DO1TOB-60. If no packets are shown the sender has not sent any weather packets the latest 1 day(s).
| Time | Temp. | Humidity | Pressure | Rain* | Wind** | Luminosity | Snow |
|---|---|---|---|---|---|---|---|
| 1777990007 | 14.44° C | 93% | 1008.6 hPa | 2.29 mm | 2.68 m/s, 316° | - | - |
| 1777989937 | 14.44° C | 93% | 1008.6 hPa | 2.29 mm | 0.89 m/s, 334° | - | - |
| 1777989877 | 14.44° C | 93% | 1008.6 hPa | 2.29 mm | 1.79 m/s, 355° | - | - |
| 1777989817 | 14.44° C | 93% | 1008.6 hPa | 2.29 mm | 3.13 m/s, 335° | - | - |
| 1777989758 | 14.44° C | 93% | 1008.7 hPa | 2.29 mm | 3.58 m/s, 343° | - | - |
| 1777989697 | 14.44° C | 93% | 1008.7 hPa | 2.29 mm | 0.45 m/s, 338° | - | - |
| 1777989637 | 14.44° C | 93% | 1008.7 hPa | 2.29 mm | 0.45 m/s, 327° | - | - |
| 1777989577 | 14.44° C | 93% | 1008.7 hPa | 2.29 mm | 4.02 m/s, 334° | - | - |
| 1777989517 | 14.44° C | 94% | 1008.7 hPa | 2.29 mm | 2.24 m/s, 336° | - | - |
| 1777989457 | 14.44° C | 94% | 1008.7 hPa | 2.29 mm | 2.68 m/s, 329° | - | - |
| 1777989397 | 14.44° C | 94% | 1008.6 hPa | 2.29 mm | 4.92 m/s, 336° | - | - |
| 1777989338 | 14.44° C | 94% | 1008.7 hPa | 2.29 mm | 1.34 m/s, 331° | - | - |
| 1777989277 | 14.44° C | 94% | 1008.7 hPa | 2.29 mm | 4.02 m/s, 340° | - | - |
| 1777989218 | 14.44° C | 94% | 1008.6 hPa | 2.29 mm | 2.24 m/s, 341° | - | - |
| 1777989157 | 14.44° C | 94% | 1008.6 hPa | 2.29 mm | 3.13 m/s, 344° | - | - |
| 1777989098 | 14.44° C | 94% | 1008.6 hPa | 2.29 mm | 1.79 m/s, 333° | - | - |
| 1777989037 | 14.44° C | 94% | 1008.6 hPa | 2.29 mm | 3.13 m/s, 311° | - | - |
| 1777988977 | 14.44° C | 94% | 1008.6 hPa | 2.29 mm | 1.79 m/s, 338° | - | - |
| 1777988917 | 14.44° C | 94% | 1008.6 hPa | 2.29 mm | 3.13 m/s, 335° | - | - |
| 1777988857 | 14.44° C | 94% | 1008.7 hPa | 2.29 mm | 2.24 m/s, 342° | - | - |
| 1777988797 | 14.44° C | 94% | 1008.7 hPa | 2.29 mm | 3.13 m/s, 314° | - | - |
| 1777988737 | 14.44° C | 94% | 1008.7 hPa | 2.29 mm | 1.79 m/s, 323° | - | - |
| 1777988677 | 14.44° C | 94% | 1008.7 hPa | 2.29 mm | 2.24 m/s, 350° | - | - |
| 1777988617 | 14.44° C | 94% | 1008.8 hPa | 2.29 mm | 2.68 m/s, 329° | - | - |
| 1777988557 | 14.44° C | 94% | 1008.8 hPa | 2.29 mm | 1.79 m/s, 338° | - | - |
* Rain latest hour (hover to see other rain measurements)
** Current wind speed in m/s (hover to see current wind gust speed)